Location: Newark
(9.4667°S, 159.8167°E)
Time: 15:13:25
(UTC+00:00)

Vanguard 1 - Pass Details

Date: 22 November 2019
Orbit: 652 x 3832 km, 34.3° (Epoch: 09 December)

Event Time Altitude Azimuth Distance (km) Brightness Sun altitude
Rises 16:41:00 0° 232° (SW) 7,263 14.3 -29.6°
Reaches altitude 10° 16:45:35 10° 229° (SW) 6,508 14.0 -28.6°
Maximum altitude 17:08:46 69° 147° (SSE) 3,945 13.1 -23.5°
Drops below altitude 10° 17:28:47 10° 66° (ENE) 5,798 14.5 -19.1°
Sets 17:32:31 0° 64° (ENE) 6,483 14.8 -18.3°
